Retour au catalogue

FENGYUN 1C DEB

ActifSSO
NORAD 29938·DEBRIS·🇨🇳 China

Lancé May 10, 1999 depuis Taiyuan Satellite Launch Center

Loading…

Prochains Passages (prochaines 24 heures)

TLE

FraisSource: Space-Track

Époque: Sep 14, 2026, 09:41 UTC

1 29938U 99025JL  26257.40390535 -.00000011  00000-0  19106-4 0  9991
2 29938  98.8248 245.7207 0032342 253.6151 270.8928 14.07588198  9327

Suivez FENGYUN 1C DEB en temps réel avec AllMySat

Download on the App Store